Location: McFarlands Corners
(41.4117°N, 81.3382°W)
Time: 17:17:52
(UTC+00:00)

Transit 2A - Pass Details

Date: 22 February 2026
Orbit: 590 x 954 km, 66.7° (Epoch: 7 March)

Event Time Altitude Azimuth Distance (km) Brightness Sun altitude
Rises 02:49:53 0° 322° (NW) 3,520 10.1 -41.6°
Reaches altitude 10° 02:52:40 10° 314° (NW) 2,526 9.3 -42.0°
Enters shadow 02:54:35 19° 303° (WNW) 1,909 8.5 -42.4°
